SCOUT A R/B, 2967

Orbit data source: Space-Track

SCOUT A R/B, 2967 is space debris in LEO originally from a launch on Mon, 25 Sep 1967 UTC launched from the Air Force Western Test Range (AFWTR). Debris objects in space refer to the collection of defunct objects orbiting the Earth. Examples of debris include non-operational satellites, rocket bodies, and fragments generated from explosions, collisions, or faulty payload assembly.

Loading next visibility...
Identifier
2967, 1967-092B
Orbit
LEO
Country
Flag of USUS
Related business
Manufacturer
ABL
Mission
Spacecraft
Bus & Motor
ALTAIR, Unknown motor
Mass
33 kg wet, 33 kg dry
Launch date (UTC)
1967-09-25 (58 years ago)
Launch vehicle
Unknown
Launch site
Air Force Western Test Range (AFWTR)
Object type
Payload
Rocket body
Debris
Shape & HBR
Cyl, 0.8 m
Radar Cross Section
0.687 m², Medium (>0.1 m² and < 1m²)

Expand to show TLE details & history
Last TLE update: 15 hours ago

TLE from 15 hours ago
0 SCOUT A R/B
1 02967U 67092B   25258.21136787  .00000070  00000-0  87346-4 0  9994
2 02967  89.2501  29.9449 0046831 176.4595 301.5497 13.52347304857761
Epoch: 2025-09-15T05:04Z
TLE epoch observation values (Epoch: 2025-09-15T05:04:22.183Z)
Latitude
62.52681°
Longitude
137.9982°
Altitude
1,056.329 km
Speed
7.338 km/s
True Right ascension
13h 54m 02s
True Declination
62° 23' 29"
Sunlit
Object was in daylight at epoch
Visualization orbit readout
Latitude
Unknown
Longitude
Unknown
Altitude
Unknown
Speed
Unknown
Apparent Right ascension
Unknown
Apparent Declination
Unknown
Sunlit
N/A
Visualization observer readout
Local Sidereal Time
12:22:05
Azimuth
Unknown
Elevation
Unknown
Doppler factor
Unknown
Orbital elements
Apogee altitude
1,095.519 km
Perigee altitude
1,025.846 km
Semi-major axis
7,438.82 km
Eccentricity
0.00468
Inclination
89.2501°
RAAN
29.9449°
Arg. of periapsis
176.4595°
True anomaly
301.09098°
Mean anomaly
301.5497°
Eccentric anomaly
301.32048°
Mean motion
3.38288 °/min
Orbital period
106.42 mins
BSTAR
0.000087346
Loading maneuver chart data...
Computing Atmospheric mass density...
Loading historical data...
Loading historical data...
Loading historical data...
Loading historical data...
Loading historical data...
Loading historical data...
Loading historical data...

Documentation

Showing up to 5 results
|